Theta_e
287 288 288 289 289 290 290 290 292 293 293 293 292 291 291 291 292 292 292 292 292 291 291 290 290 291 290 291 292 292 292 292 290 292 293 293 292 291 290 289 290 290 289
286 286 285 286 286 286 287 288 290 290 290 289 288 288 288 288 289 289 289 289 288 287 287 286 286 288 287 288 288 287 287 288 287 286 288 288 288 287 286 286 287 287 286
284 283 283 283 283 284 284 286 287 287 287 287 287 286 285 285 285 287 287 286 286 284 284 283 283 283 282 284 285 284 285 286 286 285 284 286 286 283 282 282 282 282 283
282 282 281 282 282 283 283 283 284 285 285 285 285 285 284 283 283 284 284 284 284 283 283 282 282 281 281 282 282 282 282 283 283 282 282 281 281 280 279 276 276 278 278
281 281 280 281 282 282 282 282 282 282 283 284 283 282 282 282 283 282 283 282 283 282 282 281 281 282 284 283 281 280 280 279 279 278 277 277 276 275 274 275 274 275 276
279 279 279 280 280 280 280 281 281 281 281 281 281 280 280 281 283 284 283 282 281 280 280 279 280 280 281 282 283 282 280 277 276 276 276 274 274 274 275 274 273 272 271
277 277 277 278 277 278 278 279 279 279 279 279 279 279 279 280 282 282 282 279 279 278 278 278 279 280 280 279 280 280 279 280 279 277 274 274 273 274 275 274 273 273 272
275 275 276 277 276 277 276 276 277 277 277 276 276 278 278 280 281 281 281 279 278 278 277 278 278 278 279 278 277 277 277 277 278 278 276 276 276 277 276 275 274 273 273
273 274 274 275 275 275 275 274 275 276 275 275 275 275 276 277 281 281 279 278 277 277 277 277 277 277 279 280 276 275 275 276 278 279 278 279 279 279 278 274 266 268 266
272 272 273 274 273 272 273 273 275 275 275 275 275 274 275 275 279 280 279 278 276 277 277 277 278 278 279 279 276 274 274 274 275 275 274 275 276 276 277 275 273 264 266
271 271 271 272 272 272 272 273 273 273 273 273 273 273 273 273 275 278 279 276 275 275 275 275 276 278 279 279 278 274 274 276 273 272 271 272 273 273 274 274 273 270 266
270 269 269 270 271 271 271 271 272 272 271 271 271 271 272 273 274 275 276 277 277 274 274 275 276 278 278 278 276 276 277 274 266 264 265 267 269 270 271 270 270 269 270
267 266 266 268 270 271 269 269 268 269 268 269 270 269 270 272 272 274 275 277 277 275 276 276 278 277 277 275 275 275 271 267 265 263 266 267 269 270 269 267 266 266 265
264 264 265 265 266 266 269 269 267 267 267 269 268 267 267 269 270 271 273 273 274 274 274 273 274 275 275 274 270 271 270 269 267 265 266 268 266 263 265 265 265 266 265
265 265 265 265 265 265 267 266 268 268 268 264 263 266 263 263 269 273 273 270 269 273 270 265 265 266 265 266 266 265 266 265 264 263 263 261 265 265 265 264 264 264 263
265 265 264 265 263 265 264 263 268 269 270 270 271 269 269 271 273 274 275 275 276 276 263 260 262 264 264 264 263 264 263 263 264 263 259 262 263 264 264 265 264 262 262
265 266 263 264 264 263 263 262 260 264 270 270 270 271 271 272 273 273 274 275 275 273 259 258 260 261 262 263 262 262 263 262 260 259 259 263 264 263 262 262 262 262 262
259 262 262 262 261 261 261 261 260 259 258 260 267 269 270 272 272 272 273 272 260 261 255 256 256 258 259 260 260 260 260 260 258 260 260 260 258 260 260 261 261 261 262
259 259 259 259 259 259 259 259 259 257 256 256 257 264 265 269 270 271 271 258 255 254 254 254 256 257 258 257 258 257 256 257 257 257 258 259 259 260 261 261 262 262 262
257 260 259 258 257 257 258 257 257 256 256 255 256 257 256 257 254 255 257 256 255 257 257 257 256 256 255 255 255 255 255 255 256 256 258 259 260 261 261 261 261 261 261
260 257 257 256 256 256 256 257 258 256 256 256 258 258 268 259 258 256 255 257 257 257 257 256 256 255 254 254 253 253 254 257 257 255 258 259 259 260 261 261 261 261 261
261 259 256 255 256 258 257 257 257 257 257 257 258 257 269 259 256 257 258 259 259 258 258 257 257 255 255 255 254 254 254 256 257 256 257 258 259 260 260 259 259 260 260
258 257 257 255 257 257 257 256 256 257 257 258 258 259 257 259 258 259 259 260 257 258 258 256 258 258 255 256 255 257 257 256 256 254 255 257 257 258 258 258 258 258 258
255 256 257 258 258 258 258 257 258 258 258 259 256 257 259 260 260 260 260 260 257 259 258 258 258 258 258 255 255 256 257 257 257 257 254 256 257 257 258 257 257 258 258
256 257 258 259 258 259 257 257 258 257 258 259 259 259 260 260 261 261 261 261 260 259 258 258 258 258 256 255 256 255 256 259 258 258 256 254 256 256 256 255 256 257 258
258 258 258 257 257 257 258 259 259 260 260 261 262 262 262 262 263 263 263 261 260 260 259 259 258 256 257 256 255 256 256 259 257 257 256 255 255 255 256 257 260 262 263
Wind_Speed
11 11 11 11 11 11 11 10 10 11 11 11 11 11 11 10 9 8 8 8 9 8 7 8 8 7 5 5 5 5 5 4 3 3 4 6 8 8 9 8 8 8 8
10 11 12 12 12 12 11 11 10 11 10 10 10 11 10 10 8 8 9 8 8 9 8 9 9 6 8 6 5 6 5 4 3 3 3 5 6 10 10 10 9 8 9
10 11 11 11 11 11 10 9 9 10 10 10 11 11 11 10 9 8 8 8 8 9 9 10 9 9 8 6 6 5 5 5 4 2 3 3 3 8 8 8 10 9 9
9 10 10 10 10 9 9 10 10 9 9 10 11 11 11 10 9 7 7 7 8 8 9 9 8 8 7 6 7 6 6 4 4 3 3 3 3 6 3 7 9 7 10
9 9 9 8 8 8 9 8 9 9 9 9 10 10 10 9 7 6 6 7 6 7 7 8 7 6 10 9 4 5 5 4 4 4 4 3 3 6 8 7 7 8 10
8 8 7 8 8 8 8 8 8 8 8 8 9 10 9 7 13 12 8 6 7 6 6 5 5 8 10 11 10 11 8 5 6 5 4 5 6 5 5 7 7 8 6
7 7 7 7 7 7 7 7 8 8 8 8 8 8 8 7 12 12 11 7 6 6 7 5 5 6 7 7 9 9 8 8 9 4 5 5 6 7 7 8 8 7 7
7 7 6 6 7 7 7 7 6 6 7 6 7 7 7 8 12 10 10 5 5 7 7 6 6 6 7 7 5 4 4 3 4 4 3 4 5 5 4 7 8 8 7
6 6 6 6 6 7 8 7 5 6 6 6 7 6 7 7 12 11 7 4 5 5 6 5 5 5 10 12 7 7 5 4 8 11 12 11 12 13 10 3 4 7 6
5 6 5 5 6 6 6 5 5 4 6 5 7 6 7 6 10 10 7 4 5 4 3 4 4 5 10 11 7 7 6 7 8 8 7 8 9 8 11 6 5 3 4
4 5 5 5 6 5 5 4 4 5 5 4 5 4 5 5 5 9 10 6 4 4 3 2 3 8 10 11 11 5 7 8 7 4 5 5 5 4 4 4 6 6 5
4 5 5 4 4 4 5 4 4 3 4 3 3 2 2 2 4 6 8 7 6 4 4 3 3 10 11 12 9 10 11 8 2 3 3 4 4 4 5 6 7 6 6
5 4 4 5 4 3 3 3 3 3 2 2 1 1 1 1 2 6 7 8 6 3 3 7 12 11 12 9 11 12 4 1 2 2 3 5 4 6 7 5 5 6 7
5 4 3 3 2 2 2 2 2 2 1 1 2 2 2 2 1 2 3 4 7 5 8 3 7 9 11 10 4 5 1 1 2 2 4 5 3 4 6 3 6 8 8
3 2 2 3 1 2 2 2 2 2 2 1 1 1 2 2 3 7 6 2 3 5 5 1 2 2 2 3 3 3 2 2 2 2 3 3 6 6 6 4 5 7 7
4 3 3 3 2 2 2 1 2 3 3 3 4 2 1 6 9 9 11 11 12 13 3 1 2 2 3 3 4 4 2 3 3 2 2 4 6 7 7 7 6 6 9
3 4 2 1 2 2 1 1 1 2 5 5 6 6 7 8 10 10 12 12 12 9 1 2 2 1 3 3 4 3 6 2 2 3 3 6 6 7 8 8 8 8 9
2 4 3 3 2 2 1 1 1 1 1 3 3 5 8 10 9 12 13 11 4 4 1 2 3 3 3 4 4 4 4 4 3 4 5 5 4 6 8 8 8 9 10
3 2 1 2 2 2 1 1 1 2 3 3 3 4 4 6 10 10 9 2 2 3 3 3 3 3 4 4 4 4 4 4 4 4 5 6 6 5 8 8 9 13 13
3 3 4 3 2 2 2 2 2 2 3 3 3 4 2 2 2 3 3 3 3 4 4 5 4 4 4 4 4 4 4 4 5 4 6 6 7 6 9 10 10 11 11
4 4 5 2 2 3 3 3 3 3 4 4 4 4 9 4 5 4 3 4 4 4 5 5 4 4 4 4 4 4 5 7 6 5 6 7 6 8 8 9 10 11 12
6 5 4 5 4 4 4 4 4 4 4 5 5 4 13 2 3 4 5 6 6 5 5 5 5 5 5 5 5 5 6 7 7 5 7 8 7 8 8 10 11 11 11
4 5 5 4 5 5 5 5 5 5 6 6 6 6 4 5 6 6 7 6 5 6 5 5 7 7 5 6 5 7 8 8 7 5 6 7 8 9 8 10 11 11 11
4 5 5 5 5 6 6 6 7 8 7 6 4 4 6 6 7 8 8 7 5 7 6 7 8 10 8 6 6 7 8 9 7 7 8 8 9 10 9 10 11 13 13
6 7 7 7 7 7 6 6 6 6 6 6 7 7 8 8 8 9 8 7 8 7 8 8 8 10 11 12 12 11 11 15 13 11 6 7 12 14 12 11 13 12 15
8 8 7 5 6 6 6 7 7 7 8 8 8 9 9 9 9 9 9 9 9 9 10 8 10 13 13 11 12 13 14 15 13 14 10 9 10 10 10 13 17 12 15
Wind_Direction
56 58 60 60 60 61 63 60 56 60 60 60 62 62 56 50 45 52 56 53 62 55 48 53 50 43 44 29 30 31 38 18 354 330 14 359 17 25 23 15 10 7 356
59 62 62 61 59 59 58 58 57 63 63 66 65 63 57 51 45 54 60 55 62 61 52 52 40 43 36 30 37 36 30 26 14 344 323 2 8 23 11 5 0 354 340
63 64 63 61 62 61 57 53 57 63 63 64 67 66 59 48 40 40 60 64 63 63 57 57 46 42 33 15 41 21 23 12 11 354 333 347 7 22 359 359 351 344 338
71 69 69 65 64 63 62 58 56 55 62 65 66 66 61 52 37 36 50 63 68 73 70 64 57 53 45 24 40 19 19 22 10 12 358 356 9 2 4 349 344 345 330
74 72 68 66 66 67 66 66 63 63 59 59 67 64 61 54 41 29 53 51 74 75 86 79 55 39 52 50 48 38 22 17 26 10 19 349 3 359 3 341 334 326 317
70 70 68 68 66 61 60 63 66 60 60 63 66 65 58 52 49 50 60 64 61 64 63 73 78 44 29 34 47 47 37 38 33 14 10 8 354 349 341 339 334 345 350
65 60 63 71 75 66 66 66 68 70 70 67 72 78 64 60 56 58 67 67 63 66 53 44 64 53 36 17 29 42 28 41 35 27 8 3 332 339 335 337 337 326 311
70 65 56 61 70 71 67 64 59 72 71 73 64 69 65 55 57 60 69 72 73 78 60 33 40 51 32 33 9 28 17 4 23 14 16 325 308 319 328 328 324 307 300
67 61 54 57 65 67 67 54 48 66 79 73 68 53 67 43 45 49 47 58 72 75 85 62 35 15 25 22 12 1 2 3 358 356 349 342 339 339 334 356 331 346 326
78 72 56 50 65 64 67 59 53 69 79 78 84 69 51 51 42 40 59 46 65 56 75 64 33 358 16 9 6 349 348 343 347 344 345 342 337 325 340 349 343 341 329
95 86 67 63 70 67 63 59 61 67 74 68 88 78 79 48 19 37 35 52 33 28 31 35 17 340 354 346 345 334 324 335 346 327 316 316 312 318 334 346 337 329 308
87 81 71 48 66 72 74 60 55 79 88 77 86 99 88 60 41 21 28 18 23 12 350 355 330 317 339 333 340 314 323 346 327 322 326 307 323 330 325 313 302 285 266
94 88 74 54 50 51 72 75 72 53 83 77 92 106 88 75 31 11 356 355 1 352 328 312 345 340 326 324 314 317 4 351 316 344 326 303 310 316 307 296 279 265 263
107 93 88 87 102 36 65 51 81 73 67 71 50 32 4 356 24 6 352 334 326 338 316 307 312 325 323 318 332 311 285 321 289 277 281 294 309 318 296 278 303 305 301
117 136 144 148 142 104 53 65 45 76 98 85 2 61 50 330 307 314 317 280 263 285 306 25 356 325 333 319 308 296 313 315 300 279 286 311 307 294 299 307 290 301 296
154 174 185 162 178 151 146 227 235 238 234 272 277 239 284 291 302 304 312 313 308 307 37 10 310 319 306 298 300 307 316 296 292 296 308 287 285 302 306 302 296 292 295
179 173 142 133 154 161 176 167 211 299 245 259 255 262 280 288 301 307 307 306 309 323 25 300 284 285 286 291 293 290 294 280 284 279 270 282 296 299 301 298 298 295 292
119 126 148 183 157 139 163 183 109 131 281 304 282 268 275 281 293 304 305 315 357 345 357 273 268 268 273 277 277 279 287 296 289 282 284 284 274 287 294 292 293 294 295
156 163 213 146 135 127 136 166 210 228 234 248 317 309 303 293 308 304 303 116 210 263 262 271 254 253 255 255 264 270 268 274 268 277 278 275 275 272 285 289 290 290 291
173 169 166 161 156 181 207 213 240 245 255 252 254 248 274 41 328 283 275 216 222 238 240 245 247 243 243 241 250 255 268 270 271 260 273 273 277 278 282 287 288 291 289
177 179 179 206 205 194 200 209 220 226 238 248 250 236 253 205 239 234 245 248 238 242 240 237 241 242 240 242 244 248 248 264 265 255 263 272 274 279 280 281 284 283 284
182 176 173 192 200 205 211 207 214 223 231 243 259 261 276 273 254 260 259 257 247 238 232 235 248 236 232 233 236 242 246 261 265 252 261 269 271 275 279 280 281 281 283
177 187 188 189 199 204 216 214 217 223 229 232 236 243 232 245 247 247 252 253 239 246 234 227 242 255 226 228 221 238 254 255 249 224 248 266 271 272 272 275 278 282 283
189 196 205 211 207 217 222 222 225 227 234 241 235 238 243 243 243 246 246 248 236 243 230 230 235 242 252 234 230 230 242 254 253 248 229 253 266 273 270 273 273 277 278
194 206 212 215 214 218 219 222 225 227 228 225 234 232 239 239 244 245 246 243 243 240 240 231 235 240 240 242 243 238 239 253 256 254 248 246 258 265 266 268 268 272 272
208 212 215 205 215 215 219 229 236 235 238 241 241 242 241 242 244 246 244 240 240 240 238 234 232 231 241 245 246 245 246 250 253 247 233 236 246 254 254 258 266 271 282